This is the latest recevied weather packets stored in our database for station/object N4TLC. If no packets are shown the sender has not sent any weather packets the latest 10 day(s).
| Time | Temp. | Humidity | Pressure | Rain* | Wind** | Luminosity | Snow |
|---|---|---|---|---|---|---|---|
| 1776976521 | 29.44° C | 26% | 1015.7 hPa | 0 mm | - | 620 W/m² | - |
| 1776976215 | 28.89° C | 27% | 1015.7 hPa | 0 mm | - | 639 W/m² | - |
| 1776975912 | 28.89° C | 26% | 1015.9 hPa | 0 mm | - | 653 W/m² | - |
| 1776975610 | 28.89° C | 26% | 1015.8 hPa | 0 mm | - | 132 W/m² | - |
| 1776975307 | 29.44° C | 26% | 1016.1 hPa | 0 mm | - | 695 W/m² | - |
| 1776975003 | 29.44° C | 26% | 1016 hPa | 0 mm | - | 726 W/m² | - |
| 1776974701 | 28.89° C | 26% | 1016 hPa | 0 mm | - | 729 W/m² | - |
| 1776974397 | 28.89° C | 26% | 1016.2 hPa | 0 mm | - | 739 W/m² | - |
| 1776974094 | 28.89° C | 26% | 1016.3 hPa | 0 mm | - | 758 W/m² | - |
| 1776973792 | 28.89° C | 26% | 1016.4 hPa | 0 mm | - | 782 W/m² | - |
| 1776973490 | 28.89° C | 27% | 1016.6 hPa | 0 mm | - | 802 W/m² | - |
| 1776973187 | 28.33° C | 26% | 1016.4 hPa | 0 mm | - | 821 W/m² | - |
| 1776972883 | 28.33° C | 27% | 1016.6 hPa | 0 mm | - | 825 W/m² | - |
| 1776972579 | 28.33° C | 27% | 1016.7 hPa | 0 mm | - | 837 W/m² | - |
| 1776972278 | 28.89° C | 25% | 1016.7 hPa | 0 mm | - | 853 W/m² | - |
| 1776971978 | 28.89° C | 25% | 1017 hPa | 0 mm | - | 864 W/m² | - |
| 1776971675 | 28.33° C | 27% | 1017.1 hPa | 0 mm | - | 880 W/m² | - |
| 1776971372 | 28.33° C | 26% | 1017.1 hPa | 0 mm | - | 887 W/m² | - |
| 1776971069 | 27.78° C | 28% | 1017.4 hPa | 0 mm | - | 881 W/m² | - |
| 1776970766 | 27.78° C | 28% | 1017.1 hPa | 0 mm | - | 886 W/m² | - |
| 1776970464 | 27.78° C | 27% | 1017.5 hPa | 0 mm | - | 896 W/m² | - |
| 1776970160 | 27.78° C | 28% | 1017.4 hPa | 0 mm | - | 913 W/m² | - |
| 1776969857 | 27.78° C | 28% | 1017.4 hPa | 0 mm | - | 924 W/m² | - |
| 1776969554 | 27.78° C | 28% | 1017.7 hPa | 0 mm | - | 932 W/m² | - |
| 1776969249 | 27.78° C | 27% | 1017.7 hPa | 0 mm | - | 930 W/m² | - |
* Rain latest hour (hover to see other rain measurements)
** Current wind speed in m/s (hover to see current wind gust speed)